Time,TemperatureF,DewpointF,PressureIn,WindDirection,WindDirectionDegrees,WindSpeedMPH,WindSpeedGustMPH,Humidity,HourlyPrecipIn,Conditions,Clouds,dailyrainin,SoftwareType,DateUTC
2013-04-12 00:29:00,47.4,33.8,29.71,ENE,67,0.0,5.0,59,0.00,,,0.00,VWS V14.01,2013-04-12 07:29:00,
2013-04-12 00:59:00,46.6,34.3,29.71,East,79,0.0,6.0,62,0.00,,,0.00,VWS V14.01,2013-04-12 07:59:00,
2013-04-12 01:29:00,45.8,33.9,29.70,ENE,78,0.0,7.0,63,0.00,,,0.00,VWS V14.01,2013-04-12 08:29:00,
2013-04-12 01:59:00,45.3,33.5,29.70,East,80,1.0,5.0,63,0.00,,,0.00,VWS V14.01,2013-04-12 08:59:00,
2013-04-12 02:29:00,44.6,33.2,29.69,East,87,0.0,7.0,64,0.00,,,0.00,VWS V14.01,2013-04-12 09:29:00,
2013-04-12 02:59:00,43.8,32.8,29.69,East,86,0.0,5.0,65,0.00,,,0.00,VWS V14.01,2013-04-12 09:59:00,
2013-04-12 03:29:00,43.6,32.6,29.68,ENE,74,2.0,5.0,65,0.00,,,0.00,VWS V14.01,2013-04-12 10:29:00,
2013-04-12 03:59:00,44.0,32.6,29.68,East,84,2.0,6.0,64,0.00,,,0.00,VWS V14.01,2013-04-12 10:59:00,
2013-04-12 04:29:00,45.0,32.4,29.67,East,85,0.0,8.0,61,0.00,,,0.00,VWS V14.01,2013-04-12 11:29:00,
2013-04-12 04:59:00,45.3,31.8,29.67,East,86,0.0,7.0,59,0.00,,,0.00,VWS V14.01,2013-04-12 11:59:00,
2013-04-12 05:29:00,44.7,31.7,29.68,East,85,0.0,5.0,60,0.00,,,0.00,VWS V14.01,2013-04-12 12:29:00,
2013-04-12 05:59:00,43.3,32.0,29.68,East,80,2.0,6.0,64,0.00,,,0.00,VWS V14.01,2013-04-12 12:59:00,
2013-04-12 06:29:00,42.5,31.6,29.68,East,85,3.0,8.0,65,0.00,,,0.00,VWS V14.01,2013-04-12 13:29:00,
2013-04-12 06:59:00,44.1,32.7,29.69,ENE,77,0.0,8.0,64,0.00,,,0.00,VWS V14.01,2013-04-12 13:59:00,
2013-04-12 07:29:00,49.4,36.1,29.69,East,87,0.0,7.0,60,0.00,,,0.00,VWS V14.01,2013-04-12 14:29:00,
2013-04-12 07:59:00,55.7,38.4,29.70,East,87,0.0,6.0,52,0.00,,,0.00,VWS V14.01,2013-04-12 14:59:00,
2013-04-12 08:29:00,59.3,34.4,29.70,East,87,0.0,0.0,39,0.00,,,0.00,VWS V14.01,2013-04-12 15:29:00,
2013-04-12 08:59:00,63.2,37.9,29.71,SW,230,2.0,6.0,39,0.00,,,0.00,VWS V14.01,2013-04-12 15:59:00,
2013-04-12 09:29:00,61.7,37.8,29.73,NW,316,7.0,9.0,41,0.00,,,0.00,VWS V14.01,2013-04-12 16:29:00,
2013-04-12 09:59:00,62.9,40.7,29.73,WSW,254,0.0,10.0,44,0.00,,,0.00,VWS V14.01,2013-04-12 16:59:00,
2013-04-12 10:29:00,64.7,42.9,29.73,West,280,3.0,10.0,45,0.00,,,0.00,VWS V14.01,2013-04-12 17:29:00,
2013-04-12 10:59:00,66.6,45.2,29.73,WNW,284,4.0,11.0,46,0.00,,,0.00,VWS V14.01,2013-04-12 17:59:00,
2013-04-12 12:29:00,70.9,46.0,29.72,WNW,300,5.0,19.0,41,0.00,,,0.00,VWS V14.01,2013-04-12 19:29:00,
2013-04-12 12:59:00,72.2,48.5,29.73,West,281,8.0,15.0,43,0.00,,,0.00,VWS V14.01,2013-04-12 19:59:00,
2013-04-12 13:29:00,74.1,35.0,29.73,East,88,7.0,15.0,24,0.00,,,0.00,VWS V14.01,2013-04-12 20:29:00,
2013-04-12 13:59:00,76.5,31.2,29.73,East,97,8.0,18.0,19,0.00,,,0.00,VWS V14.01,2013-04-12 20:59:00,
2013-04-12 14:29:00,75.8,29.3,29.72,ESE,104,9.0,17.0,18,0.00,,,0.00,VWS V14.01,2013-04-12 21:29:00,
2013-04-12 14:59:00,76.3,29.7,29.72,East,90,8.0,24.0,18,0.00,,,0.00,VWS V14.01,2013-04-12 21:59:00,
2013-04-12 15:29:00,75.3,30.2,29.70,SE,129,7.0,18.0,19,0.00,,,0.00,VWS V14.01,2013-04-12 22:29:00,
2013-04-12 15:59:00,74.9,29.9,29.70,SE,126,8.0,17.0,19,0.00,,,0.00,VWS V14.01,2013-04-12 22:59:00,
2013-04-12 16:29:00,74.9,28.6,29.69,ESE,112,7.0,18.0,18,0.00,,,0.00,VWS V14.01,2013-04-12 23:29:00,
2013-04-12 16:59:00,71.2,50.5,29.69,NW,324,7.0,13.0,48,0.00,,,0.00,VWS V14.01,2013-04-12 23:59:00,
2013-04-12 17:29:00,68.9,50.6,29.70,WNW,296,3.0,12.0,52,0.00,,,0.00,VWS V14.01,2013-04-13 00:29:00,
2013-04-12 17:59:00,67.3,51.1,29.70,West,270,2.0,8.0,56,0.00,,,0.00,VWS V14.01,2013-04-13 00:59:00,
2013-04-12 18:29:00,64.7,51.0,29.71,WNW,287,1.0,7.0,61,0.00,,,0.00,VWS V14.01,2013-04-13 01:29:00,
2013-04-12 18:59:00,61.8,50.3,29.71,WNW,288,0.0,2.0,66,0.00,,,0.00,VWS V14.01,2013-04-13 01:59:00,
2013-04-12 19:29:00,58.9,49.2,29.72,NNW,335,0.0,1.0,70,0.00,,,0.00,VWS V14.01,2013-04-13 02:29:00,
2013-04-12 19:59:00,55.1,47.0,29.73,East,85,0.0,3.0,74,0.00,,,0.00,VWS V14.01,2013-04-13 02:59:00,
2013-04-12 20:29:00,53.9,39.9,29.75,East,80,2.0,6.0,59,0.00,,,0.00,VWS V14.01,2013-04-13 03:29:00,
2013-04-12 20:59:00,53.1,37.8,29.76,East,81,2.0,6.0,56,0.00,,,0.00,VWS V14.01,2013-04-13 03:59:00,
2013-04-12 21:29:00,53.4,35.7,29.77,East,89,1.0,7.0,51,0.00,,,0.00,VWS V14.01,2013-04-13 04:29:00,
2013-04-12 21:59:00,52.9,36.2,29.78,East,84,3.0,5.0,53,0.00,,,0.00,VWS V14.01,2013-04-13 04:59:00,
2013-04-12 22:29:00,52.6,36.5,29.78,East,80,2.0,6.0,54,0.00,,,0.00,VWS V14.01,2013-04-13 05:29:00,
2013-04-12 22:59:00,52.3,36.2,29.79,East,83,2.0,7.0,54,0.00,,,0.00,VWS V14.01,2013-04-13 05:59:00,
2013-04-12 23:29:00,52.0,35.9,29.79,East,85,6.0,8.0,54,0.00,,,0.00,VWS V14.01,2013-04-13 06:29:00,
2013-04-12 23:59:00,52.0,35.9,29.79,East,83,5.0,6.0,54,0.00,,,0.00,VWS V14.01,2013-04-13 06:59:00,